Location: Dillon
(41.1766°N, 107.0923°W)
Time: 13:59:13
(UTC+00:00)

FALCONSAT 3 - Pass Details

Date: 03 July 2022
Orbit: 393 x 398 km, 35.4° (Epoch: 14 August)

Event Time Altitude Azimuth Distance (km) Brightness Sun altitude
Rises 04:52:03 0° 255° (WSW) 2,328 ? -18.1°
Reaches altitude 10° 04:54:19 10° 244° (WSW) 1,463 ? -18.3°
Enters shadow 04:55:43 20° 227° (SW) 1,006 ? -18.4°
